Weather History for Cairns, QU

Change the Weather History Date:

Sunday, December 1, 2013

  Actual Average Record
Temperature  
Mean Temperature 82 °F -  
Max Temperature 89 °F 88 °F 98 °F (2007)
Min Temperature 76 °F 74 °F 68 °F (2004)
Cooling Degree Days 18    
Growing Degree Days 32 (Base 50)    
Moisture  
Dew Point 74 °F    
Average Humidity 76    
Maximum Humidity 100    
Minimum Humidity 44    
Precipitation  
Precipitation 0.12 in 0.26 in - ()
Sea Level Pressure  
Sea Level Pressure 29.88 in    
Wind  
Wind Speed 8 mph ()    
Max Wind Speed 20 mph    
Max Gust Speed -    
Visibility 7.0 miles    
Events Rain    
Averages and records for this station are not official NWS values.
T = Trace of Precipitation, MM = Missing Value Source: Averaged Metar Reports

Daily Weather History Graph

Daily Weather History Graph

Search for Another Location

Airport:

Trip Planner

Search our weather history database for the weather conditions in past years. The results will help you decide how hot, cold, wet, or windy it might be!

Date:

Astronomy

Dec. 01, 2013 Rise Set
Actual Time 5:34 AM AEST 6:37 PM AEST
Civil Twilight 5:10 AM AEST 7:01 PM AEST
Nautical Twilight 4:42 AM AEST 7:29 PM AEST
Astronomical Twilight 4:14 AM AEST 7:58 PM AEST
Moon 3:43 AM AEST (12/1) 4:48 PM AEST (12/1)
Length of Visible Light 13h 50m
Length of Day
13h 03m
Waning Crescent, 5% of the Moon is Illuminated
Dec 1
Waning Crescent
Dec 3
New
Dec 10
First Quarter
Dec 17
Full
Dec 25
Last Quarter

Hourly Weather History & Observations

Time (AEST) Temp. Heat Index Dew Point Humidity Pressure Visibility Wind Dir Wind Speed Gust Speed Precip Events Conditions
12:00 AM 79 °F - 78 °F 94% 29.86 in - NNW 1.2 mph - -   Overcast
12:00 AM 78.8 °F - 77.0 °F 94% 29.86 in 6.2 mi NNW 1.2 mph - N/A Rain Light Rain Showers
12:25 AM 78.8 °F - 77.0 °F 94% 29.83 in 6.2 mi South 3.5 mph - N/A Rain Rain Showers
12:30 AM 78.8 °F - 77.0 °F 94% 29.83 in 3.7 mi NE 3.5 mph - N/A Rain Rain Showers
12:40 AM 78.8 °F - 77.0 °F 94% 29.83 in 6.2 mi West 4.6 mph - N/A   Scattered Clouds
1:00 AM 79 °F - 77 °F 92% 29.85 in - SSE 4.6 mph - -  
1:00 AM 78.8 °F - 77.0 °F 94% 29.83 in 6.2 mi SSE 4.6 mph - N/A   Scattered Clouds
1:30 AM 78.8 °F - 75.2 °F 89% 29.83 in 6.2 mi South 4.6 mph - N/A   Scattered Clouds
2:00 AM 78.8 °F - 77.0 °F 94% 29.83 in 6.2 mi West 4.6 mph - N/A   Scattered Clouds
2:30 AM 77.0 °F - 77.0 °F 100% 29.83 in 6.2 mi West 5.8 mph - N/A   Scattered Clouds
3:00 AM 77 °F - 76 °F 97% 29.83 in - SW 2.3 mph - -  
3:00 AM 77.0 °F - 77.0 °F 100% 29.83 in 6.2 mi SW 2.3 mph - N/A   Scattered Clouds
3:30 AM 77.0 °F - 77.0 °F 100% 29.83 in 6.2 mi Calm Calm - N/A   Scattered Clouds
4:00 AM 77 °F - 76 °F 97% 29.84 in - Calm Calm - -  
4:00 AM 77.0 °F - 77.0 °F 100% 29.83 in 6.2 mi Calm Calm - N/A   Scattered Clouds
4:30 AM 77.0 °F - 77.0 °F 100% 29.83 in 6.2 mi SW 1.2 mph - N/A   Scattered Clouds
5:00 AM 77.0 °F - 75.2 °F 94% 29.83 in 6.2 mi SSE 5.8 mph - N/A   Scattered Clouds
5:30 AM 77.0 °F - 75.2 °F 94% 29.86 in 6.2 mi SSE 10.4 mph - N/A   Mostly Cloudy
6:00 AM 78 °F - 75 °F 88% 29.87 in 16 mi South 6.9 mph - -   Partly Cloudy
6:00 AM 78.8 °F - 75.2 °F 89% 29.86 in 6.2 mi South 6.9 mph - N/A   Mostly Cloudy
6:30 AM 78.8 °F - 75.2 °F 89% 29.89 in 6.2 mi South 4.6 mph - N/A   Mostly Cloudy
7:00 AM 80 °F - 76 °F 85% 29.91 in - SSE 8.1 mph - -  
7:00 AM 80.6 °F 87.1 °F 77.0 °F 89% 29.89 in 6.2 mi SSE 8.1 mph - N/A   Mostly Cloudy
7:30 AM 82.4 °F 89.5 °F 75.2 °F 79% 29.89 in 6.2 mi South 8.1 mph - N/A   Mostly Cloudy
8:00 AM 84.2 °F 92.3 °F 75.2 °F 74% 29.89 in 6.2 mi SSE 8.1 mph - N/A   Partly Cloudy
8:30 AM 84.2 °F 92.3 °F 75.2 °F 74% 29.92 in 6.2 mi SSE 9.2 mph - N/A   Partly Cloudy
9:00 AM 85 °F - 74 °F 63% 29.92 in 19 mi South 9.2 mph - -   Partly Cloudy
9:00 AM 86.0 °F 95.1 °F 75.2 °F 70% 29.92 in 6.2 mi South 9.2 mph - N/A   Partly Cloudy
9:30 AM 87.8 °F 97.6 °F 75.2 °F 66% 29.92 in 6.2 mi South 9.2 mph - N/A   Partly Cloudy
10:00 AM 87 °F - 73 °F 55% 29.93 in - SE 11.5 mph - -  
10:00 AM 87.8 °F 95.6 °F 73.4 °F 62% 29.92 in 6.2 mi SE 11.5 mph - N/A   Partly Cloudy
10:30 AM 89.6 °F 98.2 °F 73.4 °F 59% 29.92 in 6.2 mi ESE 10.4 mph - N/A   Partly Cloudy
11:00 AM 89.6 °F 98.2 °F 73.4 °F 59% 29.92 in 6.2 mi ESE 13.8 mph - N/A   Partly Cloudy
11:30 AM 89.6 °F 98.2 °F 73.4 °F 59% 29.92 in 6.2 mi ESE 16.1 mph - N/A   Partly Cloudy
12:00 PM 89 °F - 72 °F 49% 29.91 in 19 mi ESE 18.4 mph - -   Partly Cloudy
12:00 PM 89.6 °F 96.2 °F 71.6 °F 55% 29.89 in 6.2 mi SE 18.4 mph - N/A   Partly Cloudy
12:30 PM 89.6 °F 98.2 °F 73.4 °F 59% 29.89 in 6.2 mi SE 19.6 mph - N/A   Partly Cloudy
1:00 PM 89 °F - 71 °F 46% 29.90 in - ESE 19.6 mph - -  
1:00 PM 87.8 °F 93.8 °F 71.6 °F 58% 29.89 in 6.2 mi ESE 19.6 mph - N/A   Partly Cloudy
1:30 PM 89.6 °F 94.7 °F 69.8 °F 52% 29.86 in 6.2 mi SE 19.6 mph - N/A   Partly Cloudy
2:00 PM 89.6 °F 94.7 °F 69.8 °F 52% 29.86 in 6.2 mi ESE 18.4 mph - N/A   Partly Cloudy
2:30 PM 87.8 °F 91.4 °F 68.0 °F 52% 29.86 in 6.2 mi SE 18.4 mph - N/A   Partly Cloudy
3:00 PM 89 °F - 70 °F 44% 29.87 in 19 mi ESE 18.4 mph - -   Partly Cloudy
3:00 PM 89.6 °F 94.7 °F 69.8 °F 52% 29.86 in 6.2 mi ESE 18.4 mph - N/A   Partly Cloudy
3:30 PM 87.8 °F 92.6 °F 69.8 °F 55% 29.86 in 6.2 mi ESE 18.4 mph - N/A   Partly Cloudy
4:00 PM 86 °F - 70 °F 49% 29.87 in - SE 19.6 mph - -  
4:00 PM 86.0 °F 90.4 °F 69.8 °F 58% 29.86 in 6.2 mi SE 19.6 mph - N/A   Partly Cloudy
4:30 PM 86.0 °F 91.8 °F 71.6 °F 62% 29.86 in 6.2 mi ESE 18.4 mph - N/A   Partly Cloudy
5:00 PM 84.2 °F 90.9 °F 73.4 °F 70% 29.86 in 6.2 mi SE 16.1 mph - N/A   Scattered Clouds
5:30 PM 82.4 °F 89.5 °F 75.2 °F 79% 29.86 in 6.2 mi SE 17.3 mph - N/A Rain Light Rain Showers
6:00 PM 82 °F - 74 °F 70% 29.89 in - SE 15.0 mph - -   Overcast
6:00 PM 82.4 °F 88.2 °F 73.4 °F 74% 29.89 in 6.2 mi SE 15.0 mph - N/A   Scattered Clouds
6:30 PM 82.4 °F 88.2 °F 73.4 °F 74% 29.89 in 6.2 mi SE 16.1 mph - N/A   Scattered Clouds
7:00 PM 82 °F - 74 °F 71% 29.92 in - SSE 15.0 mph - -  
7:00 PM 82.4 °F 88.2 °F 73.4 °F 74% 29.89 in 6.2 mi SSE 15.0 mph - N/A   Scattered Clouds
7:30 PM 82.4 °F 88.2 °F 73.4 °F 74% 29.89 in 6.2 mi SE 15.0 mph - N/A   Scattered Clouds
8:00 PM 80.6 °F 86.2 °F 75.2 °F 84% 29.92 in 6.2 mi SE 16.1 mph - N/A Rain Light Rain Showers
8:30 PM 78.8 °F - 75.2 °F 89% 29.92 in 6.2 mi SSE 12.7 mph - N/A   Scattered Clouds
9:00 PM 80 °F - 74 °F 79% 29.95 in - SSE 10.4 mph - -  
9:00 PM 80.6 °F 86.2 °F 75.2 °F 84% 29.95 in 6.2 mi SSE 10.4 mph - N/A   Scattered Clouds
9:30 PM 80.6 °F 85.4 °F 73.4 °F 79% 29.95 in 6.2 mi SSE 12.7 mph - N/A   Mostly Cloudy
10:00 PM 81 °F - 73 °F 70% 29.97 in - SSE 15.0 mph - -  
10:00 PM 80.6 °F 85.4 °F 73.4 °F 79% 29.95 in 6.2 mi SSE 15.0 mph - N/A   Scattered Clouds
10:30 PM 80.6 °F 85.4 °F 73.4 °F 79% 29.95 in 6.2 mi SSE 12.7 mph - N/A   Scattered Clouds
11:00 PM 80.6 °F 85.4 °F 73.4 °F 79% 29.95 in 6.2 mi SSE 10.4 mph - N/A   Scattered Clouds
11:30 PM 78.8 °F - 75.2 °F 89% 29.95 in 6.2 mi SE 11.5 mph - N/A Rain Rain Showers